Radiation Dose at Monitoring Post of Fukushima Daini Nuclear Power Station
Date,Time,MP-1(microSv/h),MP-2(microSv/h),MP-3(microSv/h),MP-4(microSv/h),MP-5(microSv/h),MP-6(microSv/h),MP-7(microSv/h),Wind Direction,Wind Velocity(m/s),Rain
2015/03/26,00:00,0.550,0.338,0.576,0.531,0.561,0.257,0.229,north,4.5,No
2015/03/26,00:10,0.551,0.338,0.577,0.530,0.562,0.256,0.229,north,4.4,No
2015/03/26,00:20,0.551,0.336,0.575,0.532,0.558,0.257,0.230,north,4.7,No
2015/03/26,00:30,0.549,0.338,0.575,0.533,0.559,0.256,0.230,north,4.8,No
2015/03/26,00:40,0.549,0.338,0.576,0.531,0.559,0.256,0.229,north,5.3,No
2015/03/26,00:50,0.551,0.340,0.578,0.530,0.562,0.257,0.230,north,5.5,No
2015/03/26,01:00,0.551,0.337,0.578,0.530,0.559,0.256,0.230,north,6.4,No
2015/03/26,01:10,0.549,0.337,0.575,0.532,0.559,0.257,0.230,north,6.1,No
2015/03/26,01:20,0.549,0.337,0.576,0.533,0.557,0.256,0.229,north,5.8,No
2015/03/26,01:30,0.548,0.338,0.576,0.531,0.560,0.257,0.229,north-northwest,5.6,No
2015/03/26,01:40,0.549,0.338,0.577,0.531,0.560,0.256,0.229,north-northwest,5.3,No
2015/03/26,01:50,0.549,0.339,0.576,0.530,0.558,0.255,0.230,north-northwest,5.8,No
2015/03/26,02:00,0.547,0.337,0.575,0.530,0.557,0.256,0.229,north-northwest,4.4,No
2015/03/26,02:10,0.548,0.337,0.574,0.532,0.559,0.256,0.229,north-northwest,4.1,No
2015/03/26,02:20,0.548,0.335,0.576,0.530,0.560,0.257,0.230,north-northwest,4.5,No
2015/03/26,02:30,0.548,0.338,0.576,0.531,0.560,0.257,0.230,north-northwest,5.3,No
2015/03/26,02:40,0.549,0.339,0.576,0.531,0.558,0.256,0.230,north-northwest,5.9,No
2015/03/26,02:50,0.548,0.338,0.576,0.532,0.559,0.256,0.229,north-northwest,5.3,No
2015/03/26,03:00,0.548,0.337,0.576,0.532,0.558,0.257,0.229,north-northwest,5.0,No
2015/03/26,03:10,0.548,0.337,0.576,0.530,0.560,0.256,0.230,north-northwest,4.2,No
2015/03/26,03:20,0.548,0.339,0.576,0.531,0.559,0.255,0.229,north-northwest,3.8,No
2015/03/26,03:30,0.547,0.339,0.579,0.530,0.558,0.256,0.231,north-northwest,3.9,No
2015/03/26,03:40,0.549,0.338,0.576,0.532,0.558,0.257,0.230,north-northwest,3.1,No
2015/03/26,03:50,0.547,0.337,0.576,0.532,0.559,0.256,0.230,north-northwest,3.9,No
2015/03/26,04:00,0.548,0.337,0.576,0.529,0.559,0.256,0.229,north-northwest,4.2,No
2015/03/26,04:10,0.547,0.337,0.578,0.529,0.560,0.256,0.229,north-northwest,5.1,No
2015/03/26,04:20,0.548,0.339,0.578,0.529,0.558,0.257,0.230,north-northwest,4.3,No
2015/03/26,04:30,0.547,0.338,0.576,0.530,0.557,0.256,0.230,northwest,4.2,No
2015/03/26,04:40,0.546,0.339,0.575,0.530,0.557,0.256,0.230,northwest,4.4,No
2015/03/26,04:50,0.547,0.337,0.576,0.533,0.558,0.255,0.229,northwest,5.7,No
2015/03/26,05:00,0.547,0.336,0.577,0.529,0.561,0.256,0.229,northwest,4.4,No
2015/03/26,05:10,0.547,0.337,0.578,0.529,0.558,0.257,0.228,west-northwest,3.2,No
2015/03/26,05:20,0.547,0.336,0.577,0.530,0.558,0.256,0.228,west-northwest,1.9,No
2015/03/26,05:30,0.547,0.338,0.574,0.529,0.557,0.255,0.227,west-northwest,2.8,No
2015/03/26,05:40,0.547,0.336,0.577,0.531,0.560,0.256,0.229,northwest,1.7,No
2015/03/26,05:50,0.546,0.336,0.578,0.530,0.559,0.257,0.228,north-northwest,1.7,No
2015/03/26,06:00,0.546,0.337,0.578,0.530,0.560,0.255,0.230,north-northwest,1.9,No
2015/03/26,06:10,0.548,0.338,0.574,0.531,0.556,0.257,0.228,north-northwest,2.8,No
2015/03/26,06:20,0.547,0.337,0.575,0.530,0.557,0.256,0.229,northwest,3.6,No
2015/03/26,06:30,0.546,0.337,0.576,0.530,0.558,0.255,0.229,north-northwest,1.8,No
2015/03/26,06:40,0.546,0.337,0.576,0.532,0.559,0.257,0.229,north,2.2,No
2015/03/26,06:50,0.546,0.337,0.576,0.530,0.558,0.256,0.227,north,2.7,No
2015/03/26,07:00,0.547,0.338,0.576,0.528,0.557,0.256,0.227,north,2.7,No
2015/03/26,07:10,0.546,0.338,0.576,0.529,0.559,0.256,0.229,north,1.8,No
2015/03/26,07:20,0.547,0.337,0.574,0.529,0.559,0.255,0.228,north,2.0,No
2015/03/26,07:30,0.547,0.337,0.576,0.529,0.560,0.257,0.228,north,1.5,No
2015/03/26,07:40,0.550,0.337,0.576,0.529,0.559,0.256,0.228,north,0.8,No
2015/03/26,07:50,0.549,0.338,0.575,0.528,0.558,0.256,0.228,northeast,1.1,No
2015/03/26,08:00,0.549,0.335,0.573,0.529,0.560,0.256,0.228,north,1.7,No
2015/03/26,08:10,0.549,0.335,0.575,0.530,0.557,0.256,0.228,north-northeast,1.7,No
2015/03/26,08:20,0.549,0.337,0.577,0.526,0.557,0.255,0.227,northeast,2.7,No
2015/03/26,08:30,0.546,0.336,0.574,0.531,0.561,0.256,0.227,northeast,2.2,No
2015/03/26,08:40,0.547,0.336,0.575,0.528,0.559,0.257,0.228,northeast,1.4,No
2015/03/26,08:50,0.547,0.336,0.575,0.530,0.558,0.255,0.229,east-northeast,1.4,No
2015/03/26,09:00,0.546,0.335,0.573,0.530,0.560,0.256,0.228,-,CALM,No
2015/03/26,09:10,0.550,0.336,0.574,0.527,0.559,0.256,0.229,east,1.5,No
2015/03/26,09:20,0.546,0.335,0.577,0.532,0.556,0.255,0.228,southeast,1.3,No
2015/03/26,09:30,0.548,0.337,0.573,0.528,0.561,0.256,0.229,south-southwest,1.9,No
2015/03/26,09:40,0.547,0.336,0.575,0.529,0.558,0.256,0.229,east-southeast,1.5,No
2015/03/26,09:50,0.544,0.336,0.575,0.529,0.562,0.257,0.229,south-southeast,2.2,No
2015/03/26,10:00,0.548,0.336,0.575,0.533,0.558,0.256,0.229,south,2.2,No
2015/03/26,10:10,0.545,0.336,0.577,0.530,0.561,0.255,0.228,south-southeast,2.3,No
2015/03/26,10:20,0.548,0.336,0.576,0.533,0.561,0.256,0.228,east-southeast,2.7,No
2015/03/26,10:30,0.545,0.335,0.574,0.528,0.560,0.256,0.229,south-southeast,3.0,No
2015/03/26,10:40,0.548,0.338,0.578,0.531,0.559,0.256,0.229,south-southeast,2.1,No
2015/03/26,10:50,0.548,0.336,0.576,0.529,0.558,0.255,0.229,southeast,3.1,No
2015/03/26,11:00,0.546,0.338,0.576,0.532,0.562,0.258,0.229,southeast,2.3,No
2015/03/26,11:10,0.549,0.336,0.571,0.529,0.558,0.256,0.230,south-southeast,1.6,No
2015/03/26,11:20,0.548,0.337,0.573,0.533,0.564,0.256,0.230,south,1.8,No
2015/03/26,11:30,0.546,0.338,0.574,0.531,0.558,0.256,0.230,south-southeast,1.9,No
2015/03/26,11:40,0.546,0.338,0.574,0.531,0.564,0.256,0.229,southeast,2.8,No
2015/03/26,11:50,0.549,0.338,0.574,0.532,0.558,0.257,0.228,east-southeast,4.1,No
2015/03/26,12:00,0.548,0.338,0.575,0.530,0.563,0.256,0.231,southeast,2.7,No
2015/03/26,12:10,0.550,0.338,0.573,0.534,0.557,0.257,0.228,east-southeast,3.4,No
2015/03/26,12:20,0.547,0.336,0.576,0.530,0.563,0.255,0.230,southeast,3.3,No
2015/03/26,12:30,0.551,0.339,0.572,0.533,0.559,0.257,0.229,east-southeast,3.7,No
2015/03/26,12:40,0.545,0.336,0.577,0.530,0.562,0.256,0.230,south,2.2,No
2015/03/26,12:50,0.549,0.341,0.573,0.534,0.561,0.257,0.231,south,2.0,No
2015/03/26,13:00,0.544,0.336,0.579,0.529,0.562,0.256,0.229,south-southeast,1.7,No
2015/03/26,13:10,0.551,0.339,0.572,0.533,0.562,0.256,0.230,south,2.8,No
2015/03/26,13:20,0.547,0.337,0.580,0.530,0.560,0.256,0.229,south,4.3,No
2015/03/26,13:30,0.550,0.339,0.573,0.534,0.560,0.257,0.230,south,3.8,No
2015/03/26,13:40,0.548,0.336,0.578,0.529,0.560,0.257,0.231,south-southeast,4.9,No
2015/03/26,13:50,0.553,0.337,0.574,0.533,0.563,0.257,0.230,south,3.8,No
2015/03/26,14:00,0.548,0.338,0.579,0.531,0.563,0.256,0.230,south,3.0,No
2015/03/26,14:10,0.551,0.337,0.574,0.533,0.558,0.256,0.229,south,5.2,No
2015/03/26,14:20,0.548,0.339,0.576,0.532,0.564,0.256,0.230,south,3.6,No
2015/03/26,14:30,0.551,0.338,0.577,0.531,0.561,0.255,0.230,south,3.3,No
2015/03/26,14:40,0.546,0.339,0.575,0.534,0.560,0.256,0.228,south,4.4,No
2015/03/26,14:50,0.552,0.337,0.576,0.532,0.562,0.257,0.230,south,4.4,No
2015/03/26,15:00,0.549,0.340,0.577,0.537,0.561,0.256,0.229,south,4.5,No
2015/03/26,15:10,0.551,0.337,0.575,0.532,0.565,0.256,0.230,south,4.7,No
2015/03/26,15:20,0.550,0.338,0.581,0.534,0.562,0.257,0.229,south,5.1,No
2015/03/26,15:30,0.550,0.338,0.578,0.534,0.565,0.256,0.232,south,5.5,No
2015/03/26,15:40,0.551,0.337,0.580,0.533,0.562,0.257,0.232,south,5.3,No
2015/03/26,15:50,0.549,0.340,0.582,0.534,0.565,0.256,0.232,south,4.7,No
2015/03/26,16:00,0.551,0.338,0.578,0.534,0.563,0.256,0.231,south,5.7,No
2015/03/26,16:10,0.549,0.338,0.579,0.533,0.560,0.256,0.231,south,5.6,No
2015/03/26,16:20,0.550,0.339,0.580,0.531,0.564,0.256,0.229,south,4.5,No
2015/03/26,16:30,0.551,0.339,0.577,0.535,0.560,0.258,0.230,south,4.9,No
2015/03/26,16:40,0.550,0.338,0.578,0.533,0.564,0.258,0.231,south,4.5,No
2015/03/26,16:50,0.551,0.339,0.578,0.532,0.561,0.257,0.230,south,4.7,No
2015/03/26,17:00,0.550,0.338,0.575,0.534,0.561,0.256,0.230,south,3.1,No
2015/03/26,17:10,0.551,0.338,0.580,0.532,0.566,0.257,0.231,south,4.3,No
2015/03/26,17:20,0.550,0.338,0.578,0.531,0.561,0.257,0.231,south,5.3,No
2015/03/26,17:30,0.552,0.339,0.577,0.532,0.562,0.257,0.231,south,4.6,No
2015/03/26,17:40,0.548,0.339,0.580,0.534,0.564,0.257,0.232,south,3.8,No
2015/03/26,17:50,0.552,0.338,0.579,0.533,0.561,0.257,0.229,south,4.2,No
2015/03/26,18:00,0.551,0.339,0.577,0.531,0.562,0.257,0.229,south,3.5,No
2015/03/26,18:10,0.551,0.339,0.578,0.532,0.563,0.258,0.230,south-southwest,3.1,No
2015/03/26,18:20,0.553,0.337,0.579,0.532,0.563,0.257,0.231,southwest,2.2,No
2015/03/26,18:30,0.552,0.339,0.577,0.532,0.560,0.257,0.230,west-northwest,0.8,No
2015/03/26,18:40,0.549,0.339,0.575,0.535,0.563,0.256,0.231,-,CALM,No
2015/03/26,18:50,0.551,0.338,0.579,0.536,0.562,0.257,0.229,north-northwest,1.4,No
2015/03/26,19:00,0.551,0.338,0.577,0.533,0.558,0.257,0.230,west,2.6,No
2015/03/26,19:10,0.551,0.338,0.576,0.531,0.561,0.257,0.231,west,2.5,No
2015/03/26,19:20,0.553,0.340,0.578,0.532,0.561,0.256,0.230,west-northwest,0.8,No
2015/03/26,19:30,0.553,0.340,0.577,0.531,0.561,0.258,0.231,north,1.4,No
2015/03/26,19:40,0.551,0.338,0.577,0.532,0.560,0.257,0.231,north-northwest,1.3,No
2015/03/26,19:50,0.551,0.339,0.577,0.531,0.560,0.258,0.230,west-northwest,2.6,No
2015/03/26,20:00,0.552,0.339,0.578,0.535,0.562,0.257,0.230,northwest,1.9,No
2015/03/26,20:10,0.551,0.339,0.577,0.532,0.560,0.257,0.230,northwest,2.0,No
2015/03/26,20:20,0.551,0.338,0.576,0.531,0.561,0.257,0.230,north-northwest,2.4,No
2015/03/26,20:30,0.553,0.338,0.578,0.535,0.562,0.256,0.231,north-northwest,3.1,No
2015/03/26,20:40,0.552,0.339,0.576,0.533,0.561,0.257,0.230,west-northwest,0.8,No
2015/03/26,20:50,0.550,0.339,0.577,0.532,0.559,0.258,0.230,-,CALM,No
2015/03/26,21:00,0.550,0.338,0.578,0.532,0.559,0.258,0.230,west,1.4,No
2015/03/26,21:10,0.551,0.338,0.578,0.534,0.563,0.257,0.230,-,CALM,No
2015/03/26,21:20,0.550,0.340,0.576,0.534,0.560,0.257,0.229,west-southwest,1.0,No
2015/03/26,21:30,0.550,0.339,0.575,0.533,0.560,0.257,0.230,west-northwest,0.8,No
2015/03/26,21:40,0.552,0.337,0.576,0.532,0.560,0.255,0.229,northwest,0.5,No
2015/03/26,21:50,0.553,0.338,0.579,0.535,0.563,0.257,0.230,west,1.7,No
2015/03/26,22:00,0.548,0.339,0.577,0.532,0.561,0.256,0.229,north-northwest,1.1,No
2015/03/26,22:10,0.551,0.338,0.580,0.533,0.560,0.257,0.231,northwest,1.0,No
2015/03/26,22:20,0.551,0.338,0.577,0.533,0.564,0.258,0.230,west-northwest,1.4,No
2015/03/26,22:30,0.549,0.338,0.578,0.533,0.561,0.257,0.230,west,1.3,No
2015/03/26,22:40,0.549,0.340,0.578,0.532,0.558,0.257,0.229,northwest,1.4,No
2015/03/26,22:50,0.551,0.339,0.578,0.532,0.560,0.258,0.230,north,2.3,No
2015/03/26,23:00,0.550,0.338,0.576,0.534,0.561,0.258,0.231,northeast,0.7,No
2015/03/26,23:10,0.551,0.339,0.577,0.533,0.560,0.257,0.230,-,CALM,No
2015/03/26,23:20,0.553,0.339,0.578,0.532,0.557,0.257,0.231,south,1.1,No
2015/03/26,23:30,0.551,0.339,0.578,0.532,0.560,0.257,0.231,south-southwest,0.7,No
2015/03/26,23:40,0.550,0.338,0.576,0.534,0.561,0.257,0.231,southwest,0.5,No
2015/03/26,23:50,0.550,0.340,0.577,0.533,0.561,0.258,0.231,south,0.9,No
